FW4499 Weather Reports


time (UTC)temp
F
wind
direction
speed
knots
gust
knots
rain 1hr
in
rain 24hr
in
rain mn
in
humidity
%
barometer
mb
20260506221535 57 249 0.9 3.5 0.02 0.23 0.23 86 1005.3
20260506220057 57 0 0.9 6.1 0.05 0.23 0.23 86 1005.1
20260506214545 57 101 0.0 3.5 0.06 0.22 0.22 85 1005.3
20260506213042 57 259 0.9 3.5 0.06 0.22 0.22 85 1005.4
20260506211542 57 255 0.9 4.3 0.06 0.21 0.21 85 1005.0
20260506210038 57 284 0.9 4.3 0.03 0.18 0.18 85 1005.1
20260506204544 57 0 0.9 8.7 0.03 0.16 0.16 85 1005.2
20260506203057 57 77 0.9 6.1 0.04 0.16 0.16 85 1005.4
20260506201541 57 106 2.6 8.7 0.04 0.15 0.15 85 1005.5
20260506200047 57 75 1.7 8.7 0.03 0.14 0.14 85 1005.6
20260506194536 56 61 1.7 9.6 0.02 0.13 0.13 84 1005.8
20260506193035 56 247 1.7 9.6 0.01 0.12 0.12 84 1006.0
20260506191544 57 240 0.9 6.1 0.00 0.11 0.11 83 1006.1
20260506190048 57 235 0.9 7.0 0.01 0.11 0.11 83 1006.2
20260506184548 57 98 1.7 8.7 0.02 0.11 0.11 82 1006.5
20260506183035 57 214 0.9 6.1 0.03 0.11 0.11 81 1006.5
20260506181541 58 241 0.9 5.2 0.04 0.11 0.11 80 1006.7
20260506180042 58 119 0.9 4.3 0.05 0.10 0.10 79 1006.7
20260506174543 58 0 0.9 5.2 0.05 0.08 0.08 76 1006.6
20260506173050 59 106 0.9 7.0 0.08 0.08 0.08 75 1006.7
20260506171537 59 0 0.0 2.6 0.07 0.07 0.07 74 1006.8
20260506170035 59 211 0.9 3.5 0.04 0.04 0.04 70 1007.5
20260506164547 60 146 0.0 3.5 0.02 0.02 0.02 68 1008.0
20260506163056 61 122 0.9 4.3 0.00 0.00 0.00 66 1007.9
20260506161537 62 243 0.9 5.2 0.00 0.00 0.00 64 1007.8
20260506160036 63 234 0.9 7.0 0.00 0.00 0.00 63 1007.8
20260506154552 64 51 0.9 5.2 0.00 0.00 0.00 60 1008.1
20260506153033 63 75 1.7 7.8 0.00 0.00 0.00 60 1008.3
20260506151541 63 226 2.6 8.7 0.00 0.00 0.00 60 1008.2
20260506150038 62 276 0.9 7.0 0.00 0.00 0.00 61 1008.2
20260506144534 62 103 0.9 7.0 0.00 0.00 0.00 61 1008.3
20260506143042 62 80 0.9 7.0 0.00 0.00 0.00 61 1008.6
20260506141541 62 116 0.0 5.2 0.00 0.00 0.00 62 1008.6
20260506140041 61 256 0.9 6.1 0.00 0.00 0.00 62 1008.7
20260506134535 61 199 0.9 10.4 0.00 0.00 0.00 63 1008.5
20260506133036 60 165 0.9 7.0 0.00 0.00 0.00 64 1008.7
20260506131537 60 94 1.7 7.8 0.00 0.00 0.00 63 1008.1
20260506130041 59 189 0.0 4.3 0.00 0.00 0.00 65 1008.6
20260506124544 59 141 0.9 3.5 0.00 0.00 0.00 66 1008.6
20260506123037 59 238 0.0 2.6 0.00 0.00 0.00 66 1008.8
20260506121543 58 108 0.9 1.7 0.00 0.00 0.00 67 1009.0
20260506120039 57 304 0.9 6.1 0.00 0.00 0.00 68 1008.8
20260506114542 57 72 0.0 4.3 0.00 0.00 0.00 70 1008.8
20260506113041 56 300 0.0 2.6 0.00 0.00 0.00 71 1008.9
20260506111542 56 129 0.9 3.5 0.00 0.00 0.00 72 1008.9
20260506110040 56 121 0.0 2.6 0.00 0.00 0.00 73 1008.9
20260506104536 55 151 0.9 3.5 0.00 0.00 0.00 74 1008.9
20260506103034 54 0 0.0 3.5 0.00 0.00 0.00 74 1008.8
20260506101534 54 110 0.9 4.3 0.00 0.00 0.00 74 1008.9
20260506100040 54 221 0.0 3.5 0.00 0.00 0.00 73 1008.8
20260506094539 54 179 0.0 3.5 0.00 0.00 0.00 72 1008.7
20260506093036 54 124 0.0 3.5 0.00 0.00 0.00 71 1008.6
20260506091535 54 177 0.9 3.5 0.00 0.00 0.00 70 1008.6
20260506090046 54 94 0.0 3.5 0.00 0.00 0.00 69 1008.8
20260506084542 54 0 0.0 2.6 0.00 0.00 0.00 69 1008.9
20260506083041 55 129 0.0 5.2 0.00 0.00 0.00 68 1008.8
20260506081541 55 79 0.0 4.3 0.00 0.00 0.00 68 1009.0
20260506073034 55 217 0.0 5.2 0.00 0.00 0.00 67 1009.1
20260506071542 56 150 0.0 1.7 0.00 0.00 0.00 65 1009.0
20260506061535 58 148 0.0 2.6 0.00 0.00 0.00 62 1008.9
20260506044543 60 141 0.0 5.2 0.00 0.00 0.00 57 1009.7
20260506043036 60 139 0.0 4.3 0.00 0.00 0.00 56 1009.7
20260506041550 61 250 0.0 5.2 0.00 0.00 0.00 56 1009.8
20260506040035 61 96 0.0 7.0 0.00 0.00 0.00 55 1009.7
20260506034547 61 0 0.0 5.2 0.00 0.00 0.00 55 1009.7
20260506033039 61 0 1.7 5.2 0.00 0.00 0.00 55 1009.7
20260506031535 61 0 0.9 5.2 0.00 0.00 0.00 54 1009.7
20260506030038 61 143 0.9 4.3 0.00 0.00 0.00 54 1009.6
20260506024541 62 213 0.0 3.5 0.00 0.00 0.00 53 1009.5
20260506023043 62 293 0.0 4.3 0.00 0.00 0.00 53 1009.6
20260506021536 62 218 0.0 4.3 0.00 0.00 0.00 52 1009.5
20260506020034 62 225 0.0 6.1 0.00 0.00 0.00 51 1009.5
20260506014541 63 156 0.0 2.6 0.00 0.00 0.00 52 1009.4
20260506013051 63 128 0.0 4.3 0.00 0.00 0.00 52 1009.2
20260506011542 63 111 0.9 5.2 0.00 0.00 0.00 52 1009.0
20260506010037 63 142 0.9 4.3 0.00 0.00 0.00 52 1008.8
20260506004534 63 120 0.0 2.6 0.00 0.00 0.00 51 1008.6
20260506003041 64 102 0.0 7.0 0.00 0.00 0.00 50 1008.4
20260506001536 64 116 0.0 3.5 0.00 0.00 0.00 49 1008.2
20260506000036 65 115 0.9 7.8 0.00 0.00 0.00 47 1007.9
20260505234535 66 140 0.9 2.6 0.00 0.00 0.00 46 1007.7
20260505233034 67 214 0.0 3.5 0.00 0.00 0.00 45 1007.6
20260505231540 68 200 0.9 7.0 0.00 0.00 0.00 43 1007.4
20260505230107 69 68 0.0 5.2 0.00 0.00 0.00 42 1007.1
20260505224535 70 133 1.7 10.4 0.00 0.00 0.00 41 1007.0
20260505223038 71 87 1.7 9.6 0.00 0.00 0.00 40 1006.8